Resolute,

5:22 AM CST on December 07, 2016 (GMT -0600)
Resolute

Weather History for CYRB - February, 2012

Change the Weather History Date:

Monday, February 20, 2012

  Actual Average Record
Temperature  
Mean Temperature -22 °F -  
Max Temperature -19 °F -20 °F -5 °F (1999)
Min Temperature -26 °F -30 °F -45 °F (2013)
Degree Days  
Heating Degree Days 88    
Moisture  
Dew Point -29 °F    
Average Humidity 64    
Maximum Humidity 69    
Minimum Humidity 44    
Precipitation  
Precipitation 0.00 in - - ()
Sea Level Pressure  
Sea Level Pressure 30.15 in    
Wind  
Wind Speed 4 mph ()    
Max Wind Speed 8 mph    
Max Gust Speed -    
Visibility 14.1 miles    
Events Snow    
Averages and records for this station are not official NWS values.
T = Trace of Precipitation, MM = Missing Value Source: Averaged Metar Reports

Daily Weather History Graph

Daily Weather History Graph

Search for Another Location

Airport or City:

Trip Planner

Search our weather history database for the weather conditions in past years. The results will help you decide how hot, cold, wet, or windy it might be!

Date:

Astronomy

Feb. 20, 2012 Rise Set
Actual Time 9:16 AM CST 3:52 PM CST
Civil Twilight 7:45 AM CST 5:24 PM CST
Nautical Twilight 6:12 AM CST 6:57 PM CST
Astronomical Twilight 4:38 AM CST 8:32 PM CST
Moon 8:48 AM CST (2/20) 2:39 PM CST (2/20)
Length of Visible Light 9h 38m
Length of Day
6h 35m
Waning Crescent, 1% of the Moon is Illuminated
Feb 20
Waning Crescent
Feb 21
New
Feb 29
First Quarter
Mar 8
Full
Mar 14
Last Quarter

Hourly Weather History & Observations

Time (CST) Temp. Windchill Dew Point Humidity Pressure Visibility Wind Dir Wind Speed Gust Speed Precip Events Conditions
12:00 AM -22 °F - -29 °F 52% 30.17 in 15 mi NNW 3.5 mph - - Snow Snow
12:00 AM -22.0 °F -33.0 °F -29.2 °F 69% 30.17 in 15.0 mi NNW 3.5 mph - N/A   Scattered Clouds
1:00 AM -22.0 °F -35.6 °F -29.2 °F 69% 30.17 in 15.0 mi NNW 4.6 mph - N/A   Partly Cloudy
2:00 AM -22.0 °F -33.0 °F -29.2 °F 69% 30.18 in 15.0 mi NNW 3.5 mph - N/A   Mostly Cloudy
3:00 AM -22.0 °F -33.0 °F -29.2 °F 69% 30.18 in 15.0 mi NNW 3.5 mph - N/A   Mostly Cloudy
4:00 AM -22.0 °F -33.0 °F -31.0 °F 63% 30.18 in 15.0 mi NNW 3.5 mph - N/A   Mostly Cloudy
5:00 AM -22.0 °F -33.0 °F -29.2 °F 69% 30.18 in 15.0 mi NW 3.5 mph - N/A   Mostly Cloudy
6:00 AM -23 °F - -31 °F 49% 30.18 in 15 mi NNW 5.8 mph - - Snow Snow
6:00 AM -23.8 °F -39.8 °F -31.0 °F 69% 30.18 in 15.0 mi NNW 5.8 mph - N/A   Mostly Cloudy
7:00 AM -22.0 °F -37.7 °F -31.0 °F 63% 30.18 in 15.0 mi NNW 5.8 mph - N/A   Mostly Cloudy
8:00 AM -23.8 °F -39.8 °F -31.0 °F 69% 30.17 in 15.0 mi NNW 5.8 mph - N/A   Mostly Cloudy
9:00 AM -23.8 °F -39.8 °F -31.0 °F 69% 30.17 in 15.0 mi North 5.8 mph - N/A   Mostly Cloudy
10:00 AM -23.8 °F -41.6 °F -31.0 °F 69% 30.17 in 15.0 mi NNW 6.9 mph - N/A   Mostly Cloudy
11:00 AM -23.8 °F -39.8 °F -31.0 °F 69% 30.16 in 15.0 mi NNW 5.8 mph - N/A   Mostly Cloudy
12:00 PM -23 °F - -31 °F 49% 30.15 in 15 mi NNW 5.8 mph - - Snow Snow
12:00 PM -23.8 °F -39.8 °F -31.0 °F 69% 30.15 in 15.0 mi NNW 5.8 mph - N/A   Mostly Cloudy
1:00 PM -20.2 °F -35.5 °F -27.4 °F 69% 30.15 in 15.0 mi NNW 5.8 mph - N/A   Mostly Cloudy
1:46 PM - - - N/A% - 15.0 mi Calm Calm - N/A   Mostly Cloudy
2:00 PM -20.2 °F -35.5 °F -27.4 °F 69% 30.14 in 15.0 mi SSE 5.8 mph - N/A   Mostly Cloudy
2:29 PM - - - N/A% - 12.0 mi SE 3.5 mph - N/A Snow Light Snow Grains
3:00 PM -22.0 °F -35.6 °F -29.2 °F 69% 30.14 in 15.0 mi SE 4.6 mph - N/A Snow Light Snow Grains
4:00 PM -13.0 °F -25.1 °F -29.2 °F 44% 30.14 in 15.0 mi East 4.6 mph - N/A Snow Light Snow Grains
5:00 PM -11.2 °F - -27.4 °F 45% 30.14 in 8.0 mi Calm Calm - N/A Snow Light Snow
6:00 PM -21 °F - -28 °F 54% 30.12 in 12 mi NNW 3.5 mph - - Snow Light Snow
6:00 PM -20.2 °F -30.9 °F -27.4 °F 69% 30.12 in 12.0 mi NNW 3.5 mph - N/A Snow Light Snow
7:00 PM -20.2 °F - -27.4 °F 69% 30.12 in 12.0 mi Calm Calm - N/A Snow Light Snow
8:00 PM -20.2 °F -35.5 °F -29.2 °F 63% 30.10 in 15.0 mi ESE 5.8 mph - N/A Snow Light Snow
9:00 PM -22.0 °F -37.7 °F -29.2 °F 69% 30.09 in 12.0 mi SE 5.8 mph - N/A Snow Light Snow
10:00 PM -22.0 °F -41.0 °F -29.2 °F 69% 30.08 in 10.0 mi ESE 8.1 mph - N/A Snow Light Snow
11:00 PM -20.2 °F -30.9 °F -29.2 °F 63% 30.07 in 15.0 mi SSE 3.5 mph - N/A Snow Light Snow